Retour au catalogue

CZ-6A DEB

ActifSSO
NORAD 54560·DEBRIS·🇨🇳 China

Lancé Nov 11, 2022 depuis Taiyuan Satellite Launch Center

Loading…

Prochains Passages (prochaines 24 heures)

TLE

FraisSource: Space-Track

Époque: Sep 14, 2026, 10:39 UTC

1 54560U 22151LL  26257.44421291  .00000026  00000-0  39790-4 0  9990
2 54560  98.8554 250.8909 0060442 114.0105 246.7408 14.08357045197018

Suivez CZ-6A DEB en temps réel avec AllMySat

Download on the App Store